RH
4 3 3 3 5 8 13 22 35 47 52 56 63 67 75 81 70 38 24 17 16 19 21 20 20 20 20 20 21 20 16 17 12 11 11 11 11 11 12 12 12 12 12
5 4 4 3 4 7 10 12 21 35 40 55 58 64 70 78 82 69 36 23 18 18 20 22 21 21 21 21 21 21 18 17 13 11 12 11 12 12 13 13 13 12 12
6 5 4 4 4 4 6 10 12 19 36 41 52 68 70 75 82 81 69 40 24 20 20 22 23 23 21 22 22 22 20 16 13 12 11 12 12 13 13 13 13 13 13
6 6 5 5 4 4 4 4 8 12 20 33 41 42 66 75 79 87 85 73 44 30 24 23 23 24 27 23 22 22 21 20 15 13 12 12 13 13 13 13 13 13 13
7 7 6 5 5 4 4 4 4 5 10 18 34 41 44 61 77 80 86 83 79 50 33 30 28 25 28 30 29 25 22 21 20 15 13 13 13 14 14 14 14 13 14
8 8 7 6 6 5 4 4 4 4 6 9 17 31 41 53 65 83 84 88 92 89 54 35 32 33 28 27 28 30 30 28 21 21 16 14 14 14 14 14 14 14 14
9 8 8 7 6 6 5 4 4 7 8 10 15 23 30 42 66 77 84 84 98 96 91 65 36 31 33 33 29 27 27 30 31 26 22 20 17 15 15 15 15 14 14
10 9 8 8 7 6 6 6 5 8 11 14 23 26 35 37 42 62 79 88 86 99 97 90 81 53 32 33 34 29 27 25 29 32 31 24 22 19 16 15 15 15 15
11 10 9 8 8 7 7 6 6 6 13 21 22 30 38 38 45 52 63 75 90 94 98 98 97 87 60 39 35 34 30 28 26 24 29 31 31 25 23 18 15 15 15
12 11 10 9 8 7 7 7 7 6 6 14 23 28 35 40 46 51 50 61 83 93 88 88 95 98 91 72 48 42 40 33 31 28 24 23 27 31 32 25 22 17 16
13 13 11 10 9 8 8 7 7 7 6 6 13 26 35 37 44 53 59 59 62 84 87 77 83 94 94 91 80 59 51 44 37 33 29 26 24 22 29 40 31 24 21
15 14 12 11 10 9 9 8 7 7 7 7 7 14 24 33 35 49 55 62 67 71 84 65 68 79 91 96 96 82 62 48 43 37 36 33 29 25 23 28 39 33 27
15 14 13 12 11 11 10 9 8 8 7 7 8 8 8 12 20 26 33 35 39 47 56 49 53 61 79 94 97 96 83 68 57 44 36 36 33 31 28 25 27 31 32
15 15 14 13 13 12 11 10 9 8 8 8 7 8 7 8 8 9 10 14 16 21 29 35 42 52 53 65 86 87 96 85 73 59 44 36 35 34 30 28 28 27 32
17 16 16 15 14 13 12 11 10 10 9 8 8 7 7 7 7 8 8 9 14 19 18 15 27 34 39 40 48 64 83 96 95 88 65 48 40 35 33 31 28 27 28
18 18 17 16 16 15 14 13 12 11 10 9 8 8 7 7 7 7 8 8 11 17 18 14 8 7 8 19 30 39 52 70 86 97 97 81 59 45 38 34 32 29 29
21 20 19 18 17 16 15 14 13 11 10 10 9 8 8 7 7 7 7 7 8 8 10 11 9 7 7 8 17 31 41 46 55 83 93 97 90 73 49 41 36 33 31
23 22 22 20 19 18 16 15 14 13 12 11 10 9 9 8 8 7 7 7 7 8 8 7 8 7 7 7 7 8 12 29 37 39 67 83 88 93 89 74 49 37 33
26 25 24 22 21 19 17 16 15 14 13 13 12 11 10 10 10 9 8 8 9 9 8 8 7 7 7 8 8 8 8 9 12 19 29 45 68 82 94 97 88 54 36
29 28 26 23 22 20 19 18 17 17 16 15 14 13 12 11 11 10 9 9 9 9 10 10 9 8 8 8 8 9 8 11 9 11 24 33 48 67 89 97 98 88 61
30 29 28 26 23 22 21 20 20 19 19 18 17 16 15 14 13 12 11 11 11 11 14 13 11 10 10 9 9 10 9 12 10 12 15 20 30 44 66 95 97 99 91
30 30 29 28 26 23 22 22 22 22 21 21 20 20 19 17 17 16 15 14 12 11 12 14 13 14 16 17 13 11 9 8 9 9 10 9 12 29 50 78 98 98 97
33 30 30 28 26 26 24 24 24 24 24 24 23 23 22 20 20 20 19 18 16 15 14 14 13 14 15 18 17 11 10 11 9 7 9 8 10 10 21 52 92 97 97
36 31 27 27 27 27 28 27 27 27 28 30 30 29 28 27 27 26 25 23 22 21 19 16 14 14 14 14 14 15 11 9 9 9 13 11 8 9 10 14 43 94 96
33 31 30 30 32 33 34 35 35 35 35 35 34 33 34 34 34 31 30 29 30 29 26 23 21 19 17 16 15 15 15 16 10 10 11 16 14 17 17 12 16 57 92
35 37 37 36 39 41 41 42 42 41 39 39 40 38 38 39 39 41 42 40 38 38 38 36 36 34 27 22 18 17 16 19 22 15 18 15 11 15 18 19 19 24 65